,,,PA_Meas_PMT16A,,PR_Meas_QMR101_102,,RH_Meas_QMH101,,SR_Meas_QMS101,,TA_Meas_QMH101,,GenWind,,GenWind,
date,time,status,PA,status,PR,status,RH,status,SR,status,TA,status,DirAvg,status,SpdAvg,
2011-04-16, 00:00:04,VALID,1009.29,VALID,0,VALID,104,VALID,0,VALID,23.9084,VALID,67,VALID,0,
2011-04-16, 00:01:04,VALID,1009.3,VALID,0,VALID,104,VALID,0,VALID,23.8871,VALID,67,VALID,0,
2011-04-16, 00:02:04,VALID,1009.24,VALID,0,VALID,104,VALID,0,VALID,23.8871,VALID,67,VALID,0,
2011-04-16, 00:03:04,VALID,1009.24,VALID,0,VALID,104,VALID,0,VALID,23.8871,VALID,67,VALID,0,
2011-04-16, 00:04:04,VALID,1009.24,VALID,0,VALID,104,VALID,0,VALID,23.8889,VALID,67,VALID,0,
2011-04-16, 00:05:04,VALID,1009.23,VALID,0,VALID,104,VALID,0,VALID,23.8871,VALID,67,VALID,0,
2011-04-16, 00:06:04,VALID,1009.22,VALID,0,VALID,104,VALID,0,VALID,23.9084,VALID,67,VALID,0,
2011-04-16, 00:07:04,VALID,1009.22,VALID,0,VALID,104,VALID,0,VALID,23.9084,VALID,67,VALID,0,
2011-04-16, 00:08:04,VALID,1009.21,VALID,0,VALID,104,VALID,0,VALID,23.9278,VALID,67,VALID,0,
2011-04-16, 00:09:04,VALID,1009.15,VALID,0,VALID,104,VALID,0,VALID,23.9065,VALID,67,VALID,0,
2011-04-16, 00:10:04,VALID,1009.18,VALID,0,VALID,104,VALID,0,VALID,23.9084,VALID,67,VALID,0,
2011-04-16, 00:11:04,VALID,1009.15,VALID,0,VALID,104,VALID,0,VALID,23.8871,VALID,67,VALID,0,
2011-04-16, 00:12:04,VALID,1009.13,VALID,0,VALID,104,VALID,0,VALID,23.9084,VALID,67,VALID,0,
2011-04-16, 00:13:04,VALID,1009.1,VALID,0,VALID,104,VALID,0,VALID,23.8889,VALID,67,VALID,0,
2011-04-16, 00:14:04,VALID,1009.1,VALID,0,VALID,104,VALID,0,VALID,23.8889,VALID,67,VALID,0,
2011-04-16, 00:15:04,VALID,1009.07,VALID,0,VALID,104,VALID,0,VALID,23.8889,VALID,67,VALID,0,
2011-04-16, 00:16:04,VALID,1009.07,VALID,0,VALID,104,VALID,0,VALID,23.8676,VALID,67,VALID,0,
2011-04-16, 00:17:04,VALID,1009.05,VALID,0,VALID,104,VALID,0,VALID,23.9084,VALID,67,VALID,0,
2011-04-16, 00:18:04,VALID,1009.07,VALID,0,VALID,104,VALID,0,VALID,23.9278,VALID,67,VALID,0,
2011-04-16, 00:19:04,VALID,1009.06,VALID,0,VALID,104,VALID,0,VALID,23.9278,VALID,67,VALID,0,
2011-04-16, 00:20:04,VALID,1009.03,VALID,0,VALID,104,VALID,0,VALID,23.9084,VALID,67,VALID,0,
2011-04-16, 00:21:04,VALID,1009.04,VALID,0,VALID,104,VALID,0,VALID,23.8871,VALID,67,VALID,0,
2011-04-16, 00:22:04,VALID,1009.01,VALID,0,VALID,104,VALID,0,VALID,23.9084,VALID,67,VALID,0,
2011-04-16, 00:23:04,VALID,1009,VALID,0,VALID,104,VALID,0,VALID,23.9084,VALID,67,VALID,0,
2011-04-16, 00:24:04,VALID,1008.96,VALID,0,VALID,104,VALID,0,VALID,23.8889,VALID,67,VALID,0,
2011-04-16, 00:25:04,VALID,1008.93,VALID,0,VALID,104,VALID,0,VALID,23.8676,VALID,67,VALID,0,
2011-04-16, 00:26:04,VALID,1008.93,VALID,0,VALID,104,VALID,0,VALID,23.8889,VALID,67,VALID,0,
2011-04-16, 00:27:04,VALID,1008.94,VALID,0,VALID,104,VALID,0,VALID,23.9084,VALID,67,VALID,0,
2011-04-16, 00:28:04,VALID,1008.95,VALID,0,VALID,104,VALID,0,VALID,23.8889,VALID,67,VALID,0,
2011-04-16, 00:29:04,VALID,1008.95,VALID,0,VALID,104,VALID,0,VALID,23.8889,VALID,67,VALID,0,
2011-04-16, 00:30:04,VALID,1008.95,VALID,0,VALID,104,VALID,0,VALID,23.8676,VALID,67,VALID,0,
2011-04-16, 00:31:04,VALID,1008.92,VALID,0,VALID,104,VALID,0,VALID,23.8889,VALID,67,VALID,0,
2011-04-16, 00:32:04,VALID,1008.93,VALID,0,VALID,104,VALID,0,VALID,23.9084,VALID,67,VALID,0,
2011-04-16, 00:33:04,VALID,1008.93,VALID,0,VALID,104,VALID,0,VALID,23.8889,VALID,67,VALID,0,
2011-04-16, 00:34:04,VALID,1008.93,VALID,0,VALID,104,VALID,0,VALID,23.8499,VALID,67,VALID,0.0101562,
2011-04-16, 00:35:04,VALID,1008.94,VALID,0,VALID,104,VALID,0,VALID,23.8694,VALID,67,VALID,0.307813,
2011-04-16, 00:36:04,VALID,1008.97,VALID,0,VALID,104,VALID,0,VALID,23.8694,VALID,67,VALID,0.451172,
2011-04-16, 00:37:04,VALID,1008.97,VALID,0,VALID,104,VALID,0,VALID,23.8676,VALID,67,VALID,0.461719,
2011-04-16, 00:38:04,VALID,1008.99,VALID,0,VALID,104,VALID,0,VALID,23.9084,VALID,67,VALID,0.676953,
2011-04-16, 00:39:04,VALID,1008.97,VALID,0,VALID,104,VALID,0,VALID,23.9084,VALID,67,VALID,0.458594,
2011-04-16, 00:40:04,VALID,1008.98,VALID,0,VALID,104,VALID,0,VALID,23.9278,VALID,67,VALID,0.254297,
2011-04-16, 00:41:04,VALID,1008.99,VALID,0,VALID,104,VALID,0,VALID,23.9278,VALID,67,VALID,0.0820313,
2011-04-16, 00:42:04,VALID,1008.96,VALID,0,VALID,104,VALID,0,VALID,23.9084,VALID,67,VALID,0.316406,
2011-04-16, 00:43:04,VALID,1008.92,VALID,0,VALID,104,VALID,0,VALID,23.8871,VALID,67,VALID,0.0492188,
2011-04-16, 00:44:04,VALID,1008.91,VALID,0,VALID,104,VALID,0,VALID,23.8889,VALID,67,VALID,0.564062,
2011-04-16, 00:45:04,VALID,1008.87,VALID,0,VALID,104,VALID,0,VALID,23.9084,VALID,67,VALID,0.659375,
2011-04-16, 00:46:04,VALID,1008.85,VALID,0,VALID,104,VALID,0,VALID,23.9084,VALID,67,VALID,0.502734,
2011-04-16, 00:47:04,VALID,1008.86,VALID,0,VALID,104,VALID,0,VALID,23.8871,VALID,67,VALID,0.673437,
2011-04-16, 00:48:04,VALID,1008.85,VALID,0,VALID,104,VALID,0,VALID,23.9278,VALID,67,VALID,0.262891,
2011-04-16, 00:49:04,VALID,1008.84,VALID,0,VALID,104,VALID,0,VALID,23.926,VALID,67,VALID,0.432422,
2011-04-16, 00:50:04,VALID,1008.87,VALID,0,VALID,104,VALID,0,VALID,23.9473,VALID,67,VALID,0.369141,
2011-04-16, 00:51:04,VALID,1008.92,VALID,0,VALID,104,VALID,0,VALID,23.9668,VALID,67,VALID,0.35625,
2011-04-16, 00:52:04,VALID,1008.93,VALID,0,VALID,104,VALID,0,VALID,23.9455,VALID,67,VALID,0.394922,
2011-04-16, 00:53:04,VALID,1008.95,VALID,0,VALID,104,VALID,0,VALID,23.9668,VALID,67,VALID,0.499609,
2011-04-16, 00:54:04,VALID,1008.98,VALID,0,VALID,104,VALID,0,VALID,23.9863,VALID,67,VALID,0.489453,
2011-04-16, 00:55:04,VALID,1008.99,VALID,0,VALID,104,VALID,0,VALID,23.9455,VALID,89,VALID,0.788672,
2011-04-16, 00:56:04,VALID,1008.99,VALID,0,VALID,104,VALID,0,VALID,23.9863,VALID,89,VALID,0.160938,
2011-04-16, 00:57:04,VALID,1009.02,VALID,0,VALID,104,VALID,0,VALID,24.004,VALID,89,VALID,0.169141,
2011-04-16, 00:58:04,VALID,1009.04,VALID,0,VALID,104,VALID,0,VALID,24.0253,VALID,89,VALID,0.177734,
2011-04-16, 00:59:04,VALID,1009.06,VALID,0,VALID,104,VALID,0,VALID,24.0253,VALID,89,VALID,0.262109,
2011-04-16, 01:00:04,VALID,1009.04,VALID,0,VALID,104,VALID,0,VALID,24.0448,VALID,89,VALID,0.00820312,
2011-04-16, 01:01:04,VALID,1009.04,VALID,0,VALID,104,VALID,0,VALID,24.0643,VALID,89,VALID,0,
2011-04-16, 01:02:04,VALID,1009.03,VALID,0,VALID,104,VALID,0,VALID,24.0448,VALID,89,VALID,0,
2011-04-16, 01:03:04,VALID,1009.02,VALID,0,VALID,104,VALID,0,VALID,24.0643,VALID,89,VALID,0,
2011-04-16, 01:04:04,VALID,1009,VALID,0,VALID,104,VALID,0,VALID,24.0643,VALID,89,VALID,0,
2011-04-16, 01:05:04,VALID,1009.02,VALID,0,VALID,104,VALID,0,VALID,24.0643,VALID,89,VALID,0,
2011-04-16, 01:06:04,VALID,1009,VALID,0,VALID,104,VALID,0,VALID,24.0235,VALID,89,VALID,0,
2011-04-16, 01:07:04,VALID,1009,VALID,0,VALID,104,VALID,0,VALID,24.0448,VALID,89,VALID,0,
2011-04-16, 01:08:04,VALID,1009.01,VALID,0,VALID,104,VALID,0,VALID,24.0448,VALID,89,VALID,0,
2011-04-16, 01:09:04,VALID,1009,VALID,0,VALID,104,VALID,0,VALID,24.0058,VALID,89,VALID,0.450391,
2011-04-16, 01:10:04,VALID,1008.98,VALID,0,VALID,104,VALID,0,VALID,24.0058,VALID,89,VALID,0.333203,
2011-04-16, 01:11:04,VALID,1009.01,VALID,0,VALID,104,VALID,0,VALID,23.9845,VALID,89,VALID,0.515234,
2011-04-16, 01:12:04,VALID,1009,VALID,0,VALID,104,VALID,0,VALID,24.0058,VALID,83,VALID,0.530859,
2011-04-16, 01:13:04,VALID,1009.01,VALID,0,VALID,104,VALID,0,VALID,23.9863,VALID,83,VALID,0.358594,
2011-04-16, 01:14:04,VALID,1008.99,VALID,0,VALID,104,VALID,0,VALID,23.965,VALID,83,VALID,0.625781,
2011-04-16, 01:15:04,VALID,1008.99,VALID,0,VALID,104,VALID,0.105969,VALID,23.9863,VALID,83,VALID,0.486328,
2011-04-16, 01:16:04,VALID,1008.99,VALID,0,VALID,104,VALID,0,VALID,23.9863,VALID,83,VALID,0.703516,
2011-04-16, 01:17:04,VALID,1009,VALID,0,VALID,104,VALID,0,VALID,23.9863,VALID,83,VALID,0.639063,
2011-04-16, 01:18:04,VALID,1009.01,VALID,0,VALID,104,VALID,0,VALID,24.0058,VALID,88,VALID,0.726563,
2011-04-16, 01:19:04,VALID,1009.01,VALID,0,VALID,104,VALID,0,VALID,23.9863,VALID,87,VALID,1.00273,
2011-04-16, 01:20:04,VALID,1009.01,VALID,0,VALID,104,VALID,0.105969,VALID,23.9863,VALID,91,VALID,0.582422,
2011-04-16, 01:21:04,VALID,1008.99,VALID,0,VALID,104,VALID,0,VALID,23.9863,VALID,91,VALID,0.15625,
2011-04-16, 01:22:04,VALID,1008.97,VALID,0,VALID,104,VALID,0,VALID,23.9863,VALID,79,VALID,0.423828,
2011-04-16, 01:23:04,VALID,1008.95,VALID,0,VALID,104,VALID,0,VALID,23.9473,VALID,79,VALID,0.369531,
2011-04-16, 01:24:04,VALID,1008.93,VALID,0,VALID,104,VALID,0,VALID,23.9065,VALID,79,VALID,0.577734,
2011-04-16, 01:25:04,VALID,1008.94,VALID,0,VALID,104,VALID,0,VALID,23.9065,VALID,79,VALID,0.721094,
2011-04-16, 01:26:04,VALID,1008.95,VALID,0,VALID,104,VALID,0,VALID,23.9084,VALID,96,VALID,0.846094,
2011-04-16, 01:27:04,VALID,1008.92,VALID,0,VALID,104,VALID,0.105969,VALID,23.9065,VALID,96,VALID,0.447266,
2011-04-16, 01:28:04,VALID,1008.9,VALID,0,VALID,104,VALID,0,VALID,23.8871,VALID,109,VALID,0.377344,
2011-04-16, 01:29:04,VALID,1008.91,VALID,0,VALID,104,VALID,0,VALID,23.8676,VALID,82,VALID,0.56875,
2011-04-16, 01:30:04,VALID,1008.86,VALID,0,VALID,104,VALID,0.105969,VALID,23.8481,VALID,82,VALID,0.651172,
2011-04-16, 01:31:04,VALID,1008.83,VALID,0,VALID,104,VALID,0,VALID,23.8694,VALID,75,VALID,0.633594,
2011-04-16, 01:32:04,VALID,1008.83,VALID,0,VALID,104,VALID,0,VALID,23.8499,VALID,75,VALID,0.544922,
2011-04-16, 01:33:04,VALID,1008.8,VALID,0,VALID,104,VALID,0,VALID,23.8304,VALID,68,VALID,0.660937,
2011-04-16, 01:34:04,VALID,1008.81,VALID,0,VALID,104,VALID,0,VALID,23.8286,VALID,68,VALID,0.422266,
2011-04-16, 01:35:04,VALID,1008.82,VALID,0,VALID,104,VALID,0,VALID,23.8091,VALID,68,VALID,0.373437,
2011-04-16, 01:36:04,VALID,1008.81,VALID,0,VALID,104,VALID,0,VALID,23.8304,VALID,68,VALID,0.421094,
2011-04-16, 01:37:04,VALID,1008.81,VALID,0,VALID,104,VALID,0,VALID,23.8091,VALID,68,VALID,0.325,
2011-04-16, 01:38:04,VALID,1008.8,VALID,0,VALID,104,VALID,0.105969,VALID,23.8109,VALID,68,VALID,0.0429688,
2011-04-16, 01:39:04,VALID,1008.82,VALID,0,VALID,104,VALID,0.105969,VALID,23.8109,VALID,69,VALID,0.280859,
2011-04-16, 01:40:04,VALID,1008.83,VALID,0,VALID,104,VALID,0,VALID,23.7896,VALID,69,VALID,0.33125,
2011-04-16, 01:41:04,VALID,1008.85,VALID,0,VALID,104,VALID,0,VALID,23.7914,VALID,71,VALID,0.641406,
2011-04-16, 01:42:04,VALID,1008.85,VALID,0,VALID,104,VALID,0,VALID,23.7896,VALID,71,VALID,0.391797,
2011-04-16, 01:43:04,VALID,1008.85,VALID,0,VALID,104,VALID,0,VALID,23.7914,VALID,71,VALID,0.442969,
2011-04-16, 01:44:04,VALID,1008.81,VALID,0,VALID,104,VALID,0,VALID,23.7507,VALID,71,VALID,0.299609,
2011-04-16, 01:45:04,VALID,1008.8,VALID,0,VALID,104,VALID,0,VALID,23.772,VALID,71,VALID,0.423047,
2011-04-16, 01:46:04,VALID,1008.83,VALID,0,VALID,104,VALID,0.105969,VALID,23.7525,VALID,71,VALID,0.158594,
2011-04-16, 01:47:04,VALID,1008.82,VALID,0,VALID,104,VALID,0.105969,VALID,23.7117,VALID,71,VALID,0.207031,
2011-04-16, 01:48:04,VALID,1008.83,VALID,0,VALID,104,VALID,0,VALID,23.7117,VALID,71,VALID,0.309766,
2011-04-16, 01:49:04,VALID,1008.84,VALID,0,VALID,104,VALID,0,VALID,23.7135,VALID,71,VALID,0.621875,
2011-04-16, 01:50:04,VALID,1008.84,VALID,0,VALID,104,VALID,0,VALID,23.6922,VALID,71,VALID,0.250391,
2011-04-16, 01:51:04,VALID,1008.84,VALID,0,VALID,104,VALID,0,VALID,23.7135,VALID,71,VALID,0.466016,
2011-04-16, 01:52:04,VALID,1008.82,VALID,0,VALID,104,VALID,0,VALID,23.694,VALID,71,VALID,0.312891,
2011-04-16, 01:53:04,VALID,1008.86,VALID,0,VALID,104,VALID,0,VALID,23.6532,VALID,71,VALID,0.343359,
2011-04-16, 01:54:04,VALID,1008.78,VALID,0,VALID,104,VALID,0.105969,VALID,23.6745,VALID,71,VALID,0.114844,
2011-04-16, 01:55:04,VALID,1008.76,VALID,0,VALID,104,VALID,0,VALID,23.6532,VALID,71,VALID,0.162891,
2011-04-16, 01:56:04,VALID,1008.73,VALID,0,VALID,104,VALID,0,VALID,23.6338,VALID,71,VALID,0,
2011-04-16, 01:57:04,VALID,1008.69,VALID,0,VALID,104,VALID,0,VALID,23.6338,VALID,71,VALID,0,
2011-04-16, 01:58:04,VALID,1008.66,VALID,0,VALID,104,VALID,0,VALID,23.655,VALID,71,VALID,0,
2011-04-16, 01:59:04,VALID,1008.65,VALID,0,VALID,104,VALID,0,VALID,23.6143,VALID,71,VALID,0,
2011-04-16, 02:00:04,VALID,1008.63,VALID,0,VALID,104,VALID,0,VALID,23.655,VALID,71,VALID,0.114453,
2011-04-16, 02:01:04,VALID,1008.66,VALID,0,VALID,104,VALID,0,VALID,23.6338,VALID,71,VALID,0.490234,
2011-04-16, 02:02:04,VALID,1008.67,VALID,0,VALID,104,VALID,0,VALID,23.6356,VALID,71,VALID,0.491406,
2011-04-16, 02:03:04,VALID,1008.68,VALID,0,VALID,104,VALID,0,VALID,23.6161,VALID,71,VALID,0.349219,
2011-04-16, 02:04:04,VALID,1008.66,VALID,0,VALID,104,VALID,0,VALID,23.5948,VALID,71,VALID,0.353906,
2011-04-16, 02:05:04,VALID,1008.65,VALID,0,VALID,104,VALID,0.105969,VALID,23.5948,VALID,71,VALID,0.276563,
2011-04-16, 02:06:04,VALID,1008.65,VALID,0,VALID,104,VALID,0,VALID,23.6161,VALID,71,VALID,0.273047,
2011-04-16, 02:07:04,VALID,1008.62,VALID,0,VALID,104,VALID,0,VALID,23.6161,VALID,71,VALID,0.408203,
2011-04-16, 02:08:04,VALID,1008.61,VALID,0,VALID,104,VALID,0,VALID,23.5948,VALID,71,VALID,0.447266,
2011-04-16, 02:09:04,VALID,1008.57,VALID,0,VALID,104,VALID,0,VALID,23.6143,VALID,71,VALID,0.414063,
2011-04-16, 02:10:04,VALID,1008.58,VALID,0,VALID,104,VALID,0.105969,VALID,23.5948,VALID,71,VALID,0.408203,
2011-04-16, 02:11:04,VALID,1008.56,VALID,0,VALID,104,VALID,0,VALID,23.6143,VALID,71,VALID,0.298438,
2011-04-16, 02:12:04,VALID,1008.58,VALID,0,VALID,104,VALID,0,VALID,23.6356,VALID,71,VALID,0.273047,
2011-04-16, 02:13:04,VALID,1008.56,VALID,0,VALID,104,VALID,0,VALID,23.5948,VALID,71,VALID,0.0554687,
2011-04-16, 02:14:04,VALID,1008.57,VALID,0,VALID,104,VALID,0,VALID,23.5948,VALID,71,VALID,0,
2011-04-16, 02:15:04,VALID,1008.55,VALID,0,VALID,104,VALID,0,VALID,23.5948,VALID,71,VALID,0,
2011-04-16, 02:16:04,VALID,1008.57,VALID,0,VALID,104,VALID,0,VALID,23.5948,VALID,71,VALID,0,
2011-04-16, 02:17:04,VALID,1008.55,VALID,0,VALID,104,VALID,0.105969,VALID,23.5753,VALID,71,VALID,0,
2011-04-16, 02:18:04,VALID,1008.56,VALID,0,VALID,104,VALID,0,VALID,23.5753,VALID,71,VALID,0,
2011-04-16, 02:19:04,VALID,1008.55,VALID,0,VALID,104,VALID,0,VALID,23.5966,VALID,71,VALID,0,
2011-04-16, 02:20:04,VALID,1008.58,VALID,0,VALID,104,VALID,0,VALID,23.5558,VALID,71,VALID,0,
2011-04-16, 02:21:04,VALID,1008.57,VALID,0,VALID,104,VALID,0,VALID,23.5753,VALID,71,VALID,0,
2011-04-16, 02:22:04,VALID,1008.59,VALID,0,VALID,104,VALID,0.105969,VALID,23.5753,VALID,71,VALID,0,
2011-04-16, 02:23:04,VALID,1008.55,VALID,0,VALID,104,VALID,0.105969,VALID,23.5558,VALID,71,VALID,0,
2011-04-16, 02:24:04,VALID,1008.56,VALID,0,VALID,104,VALID,0.105969,VALID,23.5771,VALID,71,VALID,0,
2011-04-16, 02:25:04,VALID,1008.56,VALID,0,VALID,104,VALID,0,VALID,23.5558,VALID,71,VALID,0,
2011-04-16, 02:26:04,VALID,1008.56,VALID,0,VALID,104,VALID,0,VALID,23.5558,VALID,71,VALID,0,
2011-04-16, 02:27:04,VALID,1008.51,VALID,0,VALID,104,VALID,0,VALID,23.5576,VALID,71,VALID,0,
2011-04-16, 02:28:04,VALID,1008.53,VALID,0,VALID,104,VALID,0,VALID,23.5363,VALID,71,VALID,0,
2011-04-16, 02:29:04,VALID,1008.51,VALID,0,VALID,104,VALID,0,VALID,23.5363,VALID,71,VALID,0,
2011-04-16, 02:30:04,VALID,1008.51,VALID,0,VALID,104,VALID,0.105969,VALID,23.5771,VALID,71,VALID,0,
2011-04-16, 02:31:04,VALID,1008.52,VALID,0,VALID,104,VALID,0,VALID,23.5576,VALID,71,VALID,0,
2011-04-16, 02:32:04,VALID,1008.51,VALID,0,VALID,104,VALID,0,VALID,23.5363,VALID,71,VALID,0,
2011-04-16, 02:33:04,VALID,1008.49,VALID,0,VALID,104,VALID,0.105969,VALID,23.5363,VALID,71,VALID,0,
2011-04-16, 02:34:04,VALID,1008.53,VALID,0,VALID,104,VALID,0.105969,VALID,23.5576,VALID,71,VALID,0,
2011-04-16, 02:35:04,VALID,1008.54,VALID,0,VALID,104,VALID,0,VALID,23.5576,VALID,71,VALID,0,
2011-04-16, 02:36:04,VALID,1008.57,VALID,0,VALID,104,VALID,0,VALID,23.5169,VALID,71,VALID,0,
2011-04-16, 02:37:04,VALID,1008.57,VALID,0,VALID,104,VALID,0,VALID,23.5399,VALID,71,VALID,0,
2011-04-16, 02:38:04,VALID,1008.61,VALID,0,VALID,104,VALID,0.105969,VALID,23.5169,VALID,71,VALID,0,
2011-04-16, 02:39:04,VALID,1008.64,VALID,0,VALID,104,VALID,0,VALID,23.4779,VALID,71,VALID,0,
2011-04-16, 02:40:04,VALID,1008.69,VALID,0,VALID,104,VALID,0,VALID,23.4797,VALID,71,VALID,0,
2011-04-16, 02:41:04,VALID,1008.73,VALID,0,VALID,104,VALID,0,VALID,23.4584,VALID,71,VALID,0,
2011-04-16, 02:42:04,VALID,1008.76,VALID,0,VALID,104,VALID,0,VALID,23.4602,VALID,71,VALID,0,
2011-04-16, 02:43:04,VALID,1008.8,VALID,0,VALID,104,VALID,0,VALID,23.4389,VALID,71,VALID,0,
2011-04-16, 02:44:04,VALID,1008.82,VALID,0,VALID,104,VALID,0,VALID,23.4602,VALID,71,VALID,0,
2011-04-16, 02:45:04,VALID,1008.86,VALID,0,VALID,104,VALID,0,VALID,23.4389,VALID,71,VALID,0,
2011-04-16, 02:46:04,VALID,1008.88,VALID,0,VALID,104,VALID,0,VALID,23.4407,VALID,71,VALID,0.26875,
2011-04-16, 02:47:04,VALID,1008.9,VALID,0,VALID,104,VALID,0,VALID,23.4602,VALID,71,VALID,0.341016,
2011-04-16, 02:48:04,VALID,1008.92,VALID,0,VALID,104,VALID,0,VALID,23.4602,VALID,71,VALID,0.156641,
2011-04-16, 02:49:04,VALID,1008.91,VALID,0,VALID,104,VALID,0,VALID,23.4584,VALID,71,VALID,0.000390625,
2011-04-16, 02:50:04,VALID,1008.91,VALID,0,VALID,104,VALID,0,VALID,23.4974,VALID,71,VALID,0,
2011-04-16, 02:51:04,VALID,1008.95,VALID,0,VALID,104,VALID,0,VALID,23.5186,VALID,71,VALID,0,
2011-04-16, 02:52:04,VALID,1008.94,VALID,0,VALID,104,VALID,0,VALID,23.5186,VALID,71,VALID,0,
2011-04-16, 02:53:04,VALID,1008.93,VALID,0,VALID,104,VALID,0,VALID,23.5186,VALID,71,VALID,0,
2011-04-16, 02:54:04,VALID,1008.93,VALID,0,VALID,104,VALID,0,VALID,23.4974,VALID,71,VALID,0,
2011-04-16, 02:55:04,VALID,1008.91,VALID,0,VALID,104,VALID,0.105969,VALID,23.4992,VALID,71,VALID,0,
2011-04-16, 02:56:04,VALID,1008.92,VALID,0,VALID,104,VALID,0,VALID,23.4974,VALID,71,VALID,0,
2011-04-16, 02:57:04,VALID,1008.89,VALID,0,VALID,104,VALID,0.105969,VALID,23.4779,VALID,71,VALID,0,
2011-04-16, 02:58:04,VALID,1008.89,VALID,0,VALID,104,VALID,0.105969,VALID,23.4779,VALID,71,VALID,0,
2011-04-16, 02:59:04,VALID,1008.87,VALID,0,VALID,104,VALID,0,VALID,23.4584,VALID,71,VALID,0.0175781,
2011-04-16, 03:00:04,VALID,1008.89,VALID,0,VALID,104,VALID,0.105969,VALID,23.4797,VALID,71,VALID,0,
2011-04-16, 03:01:04,VALID,1008.87,VALID,0,VALID,104,VALID,0,VALID,23.4797,VALID,71,VALID,0,
2011-04-16, 03:02:04,VALID,1008.9,VALID,0,VALID,104,VALID,0.105969,VALID,23.4389,VALID,71,VALID,0,
2011-04-16, 03:03:04,VALID,1008.9,VALID,0,VALID,104,VALID,0,VALID,23.4584,VALID,71,VALID,0,
2011-04-16, 03:04:04,VALID,1008.88,VALID,0,VALID,104,VALID,0,VALID,23.4584,VALID,71,VALID,0,
2011-04-16, 03:05:04,VALID,1008.9,VALID,0,VALID,104,VALID,0,VALID,23.4602,VALID,71,VALID,0,
2011-04-16, 03:06:04,VALID,1008.86,VALID,0,VALID,104,VALID,0,VALID,23.4407,VALID,71,VALID,0,
2011-04-16, 03:07:04,VALID,1008.87,VALID,0,VALID,104,VALID,0,VALID,23.4407,VALID,71,VALID,0,
2011-04-16, 03:08:04,VALID,1008.84,VALID,0,VALID,104,VALID,0,VALID,23.4212,VALID,71,VALID,0,
2011-04-16, 03:09:04,VALID,1008.81,VALID,0,VALID,104,VALID,0.105969,VALID,23.4017,VALID,71,VALID,0,
2011-04-16, 03:10:04,VALID,1008.8,VALID,0,VALID,104,VALID,0,VALID,23.3805,VALID,71,VALID,0.279687,
2011-04-16, 03:11:04,VALID,1008.78,VALID,0,VALID,104,VALID,0,VALID,23.4017,VALID,71,VALID,0.270312,
2011-04-16, 03:12:04,VALID,1008.77,VALID,0,VALID,104,VALID,0,VALID,23.4017,VALID,71,VALID,0.382813,
2011-04-16, 03:13:04,VALID,1008.75,VALID,0,VALID,104,VALID,0,VALID,23.4017,VALID,71,VALID,0.610156,
2011-04-16, 03:14:04,VALID,1008.76,VALID,0,VALID,104,VALID,0,VALID,23.3823,VALID,71,VALID,0.516406,
2011-04-16, 03:15:04,VALID,1008.72,VALID,0,VALID,104,VALID,0,VALID,23.361,VALID,71,VALID,0.360547,
2011-04-16, 03:16:04,VALID,1008.73,VALID,0,VALID,104,VALID,0,VALID,23.3823,VALID,71,VALID,0.174219,
2011-04-16, 03:17:04,VALID,1008.71,VALID,0,VALID,104,VALID,0,VALID,23.3823,VALID,71,VALID,0.370703,
2011-04-16, 03:18:04,VALID,1008.72,VALID,0,VALID,104,VALID,0,VALID,23.4017,VALID,71,VALID,0.302734,
2011-04-16, 03:19:04,VALID,1008.71,VALID,0,VALID,104,VALID,0,VALID,23.4017,VALID,71,VALID,0.314844,
2011-04-16, 03:20:04,VALID,1008.74,VALID,0,VALID,104,VALID,0,VALID,23.3805,VALID,71,VALID,0.184375,
2011-04-16, 03:21:04,VALID,1008.77,VALID,0,VALID,104,VALID,0,VALID,23.4212,VALID,71,VALID,0.221484,
2011-04-16, 03:22:04,VALID,1008.78,VALID,0,VALID,104,VALID,0,VALID,23.4017,VALID,71,VALID,0.00195313,
2011-04-16, 03:23:04,VALID,1008.82,VALID,0,VALID,104,VALID,0,VALID,23.4212,VALID,71,VALID,0,
2011-04-16, 03:24:04,VALID,1008.87,VALID,0,VALID,104,VALID,0,VALID,23.4407,VALID,71,VALID,0,
2011-04-16, 03:25:04,VALID,1008.89,VALID,0,VALID,104,VALID,0,VALID,23.4407,VALID,71,VALID,0,
2011-04-16, 03:26:04,VALID,1008.92,VALID,0,VALID,104,VALID,0,VALID,23.4602,VALID,71,VALID,0,
2011-04-16, 03:27:04,VALID,1008.96,VALID,0,VALID,104,VALID,0,VALID,23.4797,VALID,71,VALID,0.30625,
2011-04-16, 03:28:04,VALID,1009.02,VALID,0,VALID,104,VALID,0,VALID,23.5186,VALID,282,VALID,0.645312,
2011-04-16, 03:29:04,VALID,1009.04,VALID,0,VALID,104,VALID,0,VALID,23.5186,VALID,270,VALID,0.119922,
2011-04-16, 03:30:04,VALID,1009.02,VALID,0,VALID,104,VALID,0,VALID,23.5576,VALID,270,VALID,0.591797,
2011-04-16, 03:31:04,VALID,1009,VALID,0,VALID,104,VALID,0,VALID,23.5966,VALID,260,VALID,0.139453,
2011-04-16, 03:32:04,VALID,1008.99,VALID,0,VALID,104,VALID,0,VALID,23.655,VALID,260,VALID,0.342187,
2011-04-16, 03:33:04,VALID,1008.95,VALID,0,VALID,104,VALID,0,VALID,23.694,VALID,260,VALID,0.366406,
2011-04-16, 03:34:04,VALID,1008.96,VALID,0,VALID,104,VALID,0,VALID,23.733,VALID,260,VALID,0.0664063,
2011-04-16, 03:35:04,VALID,1008.92,VALID,0,VALID,104,VALID,0,VALID,23.772,VALID,258,VALID,0.648828,
2011-04-16, 03:36:04,VALID,1008.91,VALID,0,VALID,104,VALID,0,VALID,23.8109,VALID,258,VALID,0.570703,
2011-04-16, 03:37:04,VALID,1008.9,VALID,0,VALID,104,VALID,0,VALID,23.8694,VALID,256,VALID,0.278906,
2011-04-16, 03:38:04,VALID,1008.9,VALID,0,VALID,104,VALID,0,VALID,23.8889,VALID,256,VALID,0.334766,
2011-04-16, 03:39:04,VALID,1008.9,VALID,0,VALID,104,VALID,0,VALID,23.9278,VALID,256,VALID,0,
2011-04-16, 03:40:04,VALID,1008.89,VALID,0,VALID,104,VALID,0,VALID,23.9686,VALID,256,VALID,0.096875,
2011-04-16, 03:41:04,VALID,1008.88,VALID,0,VALID,104,VALID,0,VALID,23.9473,VALID,256,VALID,0.0308594,
2011-04-16, 03:42:04,VALID,1008.89,VALID,0,VALID,104,VALID,0,VALID,23.965,VALID,256,VALID,0.214453,
2011-04-16, 03:43:04,VALID,1008.87,VALID,0,VALID,104,VALID,0,VALID,23.9863,VALID,256,VALID,0.112891,
2011-04-16, 03:44:04,VALID,1008.86,VALID,0,VALID,104,VALID,0,VALID,23.9455,VALID,256,VALID,0,
2011-04-16, 03:45:04,VALID,1008.88,VALID,0,VALID,104,VALID,0,VALID,23.9863,VALID,256,VALID,0,
2011-04-16, 03:46:04,VALID,1008.86,VALID,0,VALID,104,VALID,0,VALID,23.9863,VALID,256,VALID,0,
2011-04-16, 03:47:04,VALID,1008.85,VALID,0,VALID,104,VALID,0,VALID,23.9863,VALID,256,VALID,0,
2011-04-16, 03:48:04,VALID,1008.81,VALID,0,VALID,104,VALID,0,VALID,23.965,VALID,256,VALID,0.266016,
2011-04-16, 03:49:04,VALID,1008.78,VALID,0,VALID,104,VALID,0,VALID,23.9278,VALID,256,VALID,0.459766,
2011-04-16, 03:50:04,VALID,1008.78,VALID,0,VALID,104,VALID,0,VALID,23.8694,VALID,256,VALID,0.279297,
2011-04-16, 03:51:04,VALID,1008.73,VALID,0,VALID,104,VALID,0,VALID,23.8499,VALID,256,VALID,0,
2011-04-16, 03:52:04,VALID,1008.73,VALID,0,VALID,104,VALID,0,VALID,23.8091,VALID,256,VALID,0,
2011-04-16, 03:53:04,VALID,1008.7,VALID,0,VALID,104,VALID,0,VALID,23.8109,VALID,256,VALID,0,
2011-04-16, 03:54:04,VALID,1008.69,VALID,0,VALID,104,VALID,0,VALID,23.8109,VALID,256,VALID,0,
2011-04-16, 03:55:04,VALID,1008.67,VALID,0,VALID,104,VALID,0,VALID,23.7914,VALID,256,VALID,0.389062,
2011-04-16, 03:56:04,VALID,1008.68,VALID,0,VALID,104,VALID,0,VALID,23.7525,VALID,256,VALID,0.421484,
2011-04-16, 03:57:04,VALID,1008.7,VALID,0,VALID,104,VALID,0,VALID,23.772,VALID,256,VALID,0.276563,
2011-04-16, 03:58:04,VALID,1008.71,VALID,0,VALID,104,VALID,0.105969,VALID,23.772,VALID,256,VALID,0.188281,
2011-04-16, 03:59:04,VALID,1008.67,VALID,0,VALID,104,VALID,0,VALID,23.7525,VALID,256,VALID,0.145703,
2011-04-16, 04:00:04,VALID,1008.66,VALID,0,VALID,104,VALID,0.105969,VALID,23.7525,VALID,256,VALID,0,